Tracking 17925 objects as of 19-January-2017
HD Live streaming from Space Station
objects crossing your sky now

COSMOS 2251 DEB

Track COSMOS 2251 DEB now!
10-day predictions


NORAD ID: 35442
Int'l Code: 1993-036AKL
Perigee: 742.3 km
Apogee: 765.9 km
Inclination: 74.0 °
Period: 99.8 minutes
Semi major axis: 7125 km
RCS: 0.0032 m2 (small)
Launch date: June 16, 1993
Source: Commonwealth of Independent States (former USSR) (CIS)
Launch site: PLESETSK MISSILE AND SPACE COMPLEX (PKMTR)

Note: This is SATELLITE DEBRIS
Your satellite tracking list
Your tracking list is empty





NASA's NSSDC Master Catalog

Two Line Element Set (TLE):
1 35442U 93036AKL 17018.63610646 +.00000701 +00000-0 +21491-3 0  9996
2 35442 074.0422 092.7881 0016532 228.5875 282.1676 14.43495801402072
Source of the keplerian elements: AFSPC